[[{"header":{"parameterUnit":"m.s-1","parameterCategory":1,"la1":30.2991,"la2":30.254,"lo1":-89.0895,"lo2":-89.0444,"dy":0.0017,"dx":0.0017,"nx":28,"ny":28,"refTime":"2024-04-26T03:00:00:Z","depth":0,"parameterNumber":2,"parameterNumberName":"U-component_of_WINDS"},"data":[0,0,0,0,0,0,0,0,0,0,0,0,0,0,0,0,0,0,0,0,0,0,0,0,0,0,0,0,0,0,0,0,0,0,0,0,0,0,0,0,0,0,0,0,0,0,0,0,0,0,0,0,0,0,0,0,0,0,-5.9708,-5.9709,0,-5.98,-5.9801,-5.9802,-5.9774,-5.9772,-5.9771,-5.9769,-5.9861,-5.9865,-5.9869,0,0,0,0,0,0,0,0,0,0,0,0,0,-5.951,-5.9514,-5.9708,-5.9709,-5.9711,-5.9799,-5.9801,-5.9802,-5.9775,-5.9772,-5.977,-5.9768,-5.9859,-5.9864,-5.9869,0,0,0,0,0,0,0,0,0,0,0,0,0,-5.9598,-5.9515,-5.9708,-5.9708,-5.9709,-5.9799,-5.9801,-5.9802,-5.9775,-5.9772,-5.977,-5.9767,-5.9858,-5.9864,-5.987,-5.9966,0,0,-5.9889,-5.9892,0,0,0,0,0,0,0,0,-5.9593,-5.9605,-5.9707,-5.9708,-5.9709,-5.9773,-5.9764,-5.9857,-5.9776,-5.975,-5.9769,-5.9765,-5.9834,-5.9842,-5.9865,-5.997,-5.9974,-5.989,-5.9894,-5.9897,-5.9898,0,0,0,0,0,0,0,-5.9587,-5.9601,-5.9744,-5.9708,-5.971,-5.9703,-5.9712,-5.9782,-5.9807,-5.9752,-5.975,-5.9761,-5.9834,-5.9859,-5.9867,-5.9976,-5.989,-5.9895,-5.9899,-5.9902,-6.0164,-6.0167,0,0,0,0,0,0,-5.958,-5.9596,-5.9741,-5.9747,-5.9643,-5.9709,-5.9719,-5.9755,-5.9806,-5.9811,-5.9764,-5.976,-5.985,-5.986,-5.987,-5.9984,-5.9897,-5.9902,-5.9906,-6.0161,-6.0165,-6.0168,0,0,0,0,0,0,-5.9576,-5.9594,-5.9738,-5.9671,-5.9689,-5.9715,-5.9756,-5.9758,-5.9784,-5.9815,-5.9819,-5.9785,-5.9848,-5.9861,-5.9942,-5.9987,-5.9905,-5.9911,-6.0157,-6.0162,-6.0166,-6.0215,0,0,0,0,0,0,-5.9571,-5.9592,-5.9629,-5.9672,-5.9693,-5.9808,-5.9759,-5.9762,-5.9795,-5.979,-5.9836,-5.984,-5.9847,-5.9933,-5.9949,-5.9995,-5.9916,-6.0153,-6.0159,-6.0165,-6.0209,-6.022,-6.023,0,0,0,0,0,-5.9564,-5.9638,-5.9631,-5.9648,-5.9739,-5.9811,-5.9823,-5.9829,-5.9799,-5.9835,-5.9856,-5.9839,-5.9981,-5.9942,-5.9959,-6.0007,-6.015,-6.0158,-6.0164,-6.0204,-6.0218,-6.023,0,0,0,0,0,0,-5.9598,-5.9644,-5.9636,-5.9727,-5.9766,-5.9806,-5.9852,-5.9843,-5.989,-5.9884,-5.989,-5.99,-5.9983,-6.0004,-5.9959,-6.0103,-6.0061,-6.0072,-6.0085,-6.0099,-6.0109,-6.0101,-5.9921,0,0,0,0,0,-5.9617,-5.9672,-5.9709,-5.9786,-5.9806,-5.9826,-5.9858,-5.9859,-5.9899,-5.9915,-5.9941,-5.998,-6.0033,-6.0068,-6.0119,-6.0214,-6.0222,-6.0256,-6.0266,-6.0275,-6.0283,-6.0334,-6.0348,-6.0192,-6.0191,-6.0191,0,0,-5.9655,-5.9687,-5.9721,-5.9794,-5.9823,-5.9879,-5.984,-5.9901,-5.9942,-5.9924,-6.0001,-6.0023,-6.0066,-6.0155,-6.0195,-6.0174,-6.0329,-6.0284,-6.029,-6.0294,-6.0342,-6.0357,-6.037,-6.0196,-6.0195,-6.0195,0,0,-5.9752,-5.9783,-5.985,-5.9881,-5.9927,-5.9941,-5.9957,-6.0,-6.0013,-6.0092,-6.0079,-6.0129,-6.0221,-6.0253,-6.0281,-6.0393,-6.0379,-6.041,-6.0463,-6.0513,-6.0525,-6.0536,-6.0574,-6.0588,-6.0419,-6.0419,-6.0419,0,-5.9793,-5.9878,-5.9885,-5.9948,-5.998,-5.9967,-6.0035,-6.0065,-6.0125,-6.0147,-6.0125,-6.024,-6.0269,-6.0363,-6.0391,-6.0415,-6.0433,-6.0403,-6.0523,-6.0534,-6.0544,-6.058,-6.0595,-6.0422,-6.0422,-6.0421,-6.0421,0,-5.9925,-5.9984,-6.0033,-6.0092,-6.013,-6.0194,-6.0212,-6.0249,-6.0249,-6.0265,-6.0345,-6.038,-6.0437,-6.0461,-6.046,-6.0556,-6.0542,-6.0522,-6.0479,-6.0562,-6.0596,-6.061,-6.0427,-6.0426,-6.0425,-6.0424,0,0,-6.0043,-6.0107,-6.0125,-6.0151,-6.0203,-6.0248,-6.0313,-6.037,-6.0401,-6.0444,-6.0498,-6.0577,-6.0559,-6.0591,-6.0595,-6.0639,-6.0723,-6.0613,-6.0614,-6.063,-6.0829,-6.0841,-6.0857,-6.0716,-6.0719,-6.0721,-6.0824,0,-6.0143,-6.0256,-6.0266,-6.0367,-6.0421,-6.0412,-6.0468,-6.0506,-6.0524,-6.0572,-6.0592,-6.0647,-6.062,-6.0639,-6.0682,-6.0704,-6.0763,-6.0697,-6.0764,-6.0766,-6.075,-6.0875,-6.0889,-6.0984,-6.0838,-6.084,-6.0842,0,-6.0273,-6.032,-6.0427,-6.0472,-6.0495,-6.0545,-6.0598,-6.0645,-6.0688,-6.0698,-6.0735,-6.0733,-6.0799,-6.0758,-6.0848,-6.0803,-6.0832,-6.0847,-6.0851,-6.0855,-6.0806,-6.0879,-6.1015,-6.1028,-6.0863,-6.0861,-6.086,0,-6.0345,-6.0436,-6.0512,-6.0535,-6.0589,-6.0625,-6.0649,-6.0689,-6.0723,-6.077,-6.0791,-6.0846,-6.0875,-6.0917,-6.093,-6.0898,-6.102,-6.0979,-6.1028,-6.1028,-6.1051,-6.1049,-6.119,-6.1076,-6.1075,-6.1075,-6.1075,0,-6.0453,-6.0519,-6.0545,-6.0591,-6.0664,-6.0676,-6.0747,-6.077,-6.0806,-6.0856,-6.0853,-6.09,-6.0916,-6.0966,-6.0977,-6.105,-6.1064,-6.1072,-6.1074,-6.1071,-6.1069,-6.1087,-6.1079,-6.1079,-6.1078,-6.1077,-6.1077,0,-6.0544,-6.0565,-6.0646,-6.0692,-6.0705,-6.0756,-6.0795,-6.0839,-6.0857,-6.0921,-6.0937,-6.0965,-6.1024,-6.1042,-6.1113,-6.112,-6.1205,-6.1202,-6.119,-6.1189,-6.1236,-6.123,-6.139,-6.1411,-6.1286,-6.1287,-6.1288,0,-6.061,-6.066,-6.0711,-6.0745,-6.077,-6.0825,-6.0859,-6.0874,-6.091,-6.0964,-6.1001,-6.106,-6.1107,-6.1201,-6.1228,-6.1282,-6.1279,-6.1332,-6.1287,-6.1282,-6.1276,-6.1272,-6.1276,-6.1338,-6.134,-6.1341,-6.1342,0,-6.0724,-6.0732,-6.0782,-6.0837,-6.0878,-6.0922,-6.0963,-6.0991,-6.1012,-6.1053,-6.1113,-6.115,-6.1223,-6.128,-6.1336,-6.1361,-6.1354,-6.1356,-6.137,-6.1365,-6.1355,-6.1359,-6.1209,-6.1351,-6.1351,-6.135,-6.1349,-6.1349,-6.0803,-6.0846,-6.0889,-6.0945,-6.0979,-6.1018,-6.1062,-6.1086,-6.1137,-6.1197,-6.1203,-6.1268,-6.1311,-6.1385,-6.1413,-6.1464,-6.1448,-6.1469,-6.1473,-6.1477,-6.148,-6.135,-6.1474,-6.1474,-6.1474,-6.1474,-6.1474,0,-6.0914,-6.0942,-6.0994,-6.1052,-6.1097,-6.1089,-6.1135,-6.1172,-6.123,-6.127,-6.1317,-6.1386,-6.1443,-6.1475,-6.1531,-6.1566,-6.1564,-6.158,-6.1576,-6.1581,-6.1492,-6.1473,-6.158,-6.158,-6.158,-6.158,-6.158,-6.158,-6.0977,-6.105,-6.1064,-6.1153,-6.1181,-6.1244,-6.1271,-6.1307,-6.134,-6.1417,-6.1464,-6.1485,-6.1523,-6.1582,-6.1634,-6.1642,-6.1661,-6.1678,-6.1684,-6.1599,-6.1588,-6.1577,-6.1559,-6.1683,-6.1683,-6.1769,-6.177,-6.177]},{"header":{"parameterUnit":"m.s-1","parameterCategory":1,"la1":30.2991,"la2":30.254,"lo1":-89.0895,"lo2":-89.0444,"dy":0.0017,"dx":0.0017,"nx":28,"ny":28,"refTime":"2024-04-26T03:00:00:Z","depth":0,"parameterNumber":3,"parameterNumberName":"V-component_of_WINDS"},"data":[0,0,0,0,0,0,0,0,0,0,0,0,0,0,0,0,0,0,0,0,0,0,0,0,0,0,0,0,0,0,0,0,0,0,0,0,0,0,0,0,0,0,0,0,0,0,0,0,0,0,0,0,0,0,0,0,0,0,4.1912,4.1913,0,4.1978,4.1979,4.1979,4.2023,4.2024,4.2024,4.2024,4.2086,4.2088,4.2089,0,0,0,0,0,0,0,0,0,0,0,0,0,4.182,4.1822,4.1912,4.1913,4.1914,4.1978,4.1979,4.1979,4.2023,4.2024,4.2024,4.2024,4.2086,4.2087,4.2089,0,0,0,0,0,0,0,0,0,0,0,0,0,4.187,4.1822,4.1912,4.1943,4.1947,4.1977,4.1979,4.198,4.2023,4.2024,4.2024,4.2025,4.2085,4.2087,4.2089,4.2092,0,0,4.2095,4.2096,0,0,0,0,0,0,0,0,4.1867,4.1874,4.1938,4.1941,4.1945,4.1993,4.1969,4.2017,4.2023,4.1994,4.2024,4.2025,4.2054,4.2059,4.207,4.2095,4.2098,4.2096,4.2097,4.2098,4.2098,0,0,0,0,0,0,0,4.1864,4.1871,4.1938,4.1939,4.1943,4.1953,4.1961,4.1978,4.2021,4.1997,4.2,4.2008,4.2057,4.2068,4.2072,4.2098,4.2096,4.2097,4.2099,4.2099,4.213,4.2129,0,0,0,0,0,0,4.1856,4.1868,4.1936,4.194,4.1907,4.1954,4.1963,4.1977,4.2021,4.2028,4.2007,4.2009,4.2064,4.207,4.2074,4.2081,4.2098,4.21,4.2101,4.213,4.213,4.2129,0,0,0,0,0,0,4.1854,4.1862,4.1933,4.1905,4.1915,4.1955,4.1971,4.1978,4.199,4.2029,4.2036,4.2011,4.2065,4.2071,4.2088,4.2084,4.21,4.2102,4.2131,4.213,4.2129,4.2095,0,0,0,0,0,0,4.1851,4.1861,4.1863,4.1905,4.1916,4.1947,4.1971,4.1979,4.1994,4.1997,4.2035,4.2041,4.2066,4.2085,4.209,4.2087,4.2104,4.2131,4.213,4.213,4.2096,4.2093,4.209,0,0,0,0,0,4.1848,4.1849,4.1863,4.1871,4.192,4.1947,4.1953,4.1983,4.1993,4.1996,4.2021,4.204,4.2084,4.2086,4.2092,4.209,4.2131,4.2131,4.213,4.2098,4.2094,4.209,0,0,0,0,0,0,4.1804,4.1855,4.1871,4.1887,4.1912,4.1954,4.1958,4.1978,4.1999,4.2002,4.2036,4.2044,4.2057,4.2075,4.2077,4.2095,4.211,4.211,4.2083,4.208,4.2077,4.2072,4.2106,0,0,0,0,0,4.1797,4.1816,4.1858,4.1868,4.188,4.1917,4.1929,4.195,4.1978,4.1988,4.2014,4.2038,4.2058,4.207,4.2089,4.2099,4.2108,4.2101,4.2097,4.2095,4.2094,4.2102,4.2099,4.2126,4.2126,4.2126,0,0,4.1781,4.1811,4.182,4.186,4.1882,4.19,4.1925,4.1942,4.1956,4.199,4.2008,4.2028,4.2057,4.2071,4.2078,4.2086,4.2089,4.2093,4.2091,4.2092,4.21,4.2098,4.2095,4.2126,4.2126,4.2126,0,0,4.1761,4.1786,4.1797,4.182,4.1854,4.1878,4.1881,4.192,4.1936,4.1955,4.1981,4.1996,4.2029,4.2049,4.2063,4.2053,4.2071,4.2058,4.2041,4.2048,4.2046,4.2044,4.2041,4.2039,4.2057,4.2057,4.2057,0,4.1737,4.1766,4.18,4.1816,4.1833,4.1867,4.1878,4.1897,4.1935,4.1946,4.1955,4.1997,4.2019,4.2038,4.2036,4.2046,4.205,4.2054,4.2044,4.2042,4.2041,4.2038,4.2037,4.2056,4.2056,4.2056,4.2056,0,4.1734,4.1754,4.1759,4.1797,4.1814,4.1827,4.1862,4.1875,4.1895,4.1918,4.1937,4.1965,4.1991,4.1997,4.2016,4.2019,4.2023,4.2037,4.2053,4.2036,4.2034,4.2033,4.2053,4.2054,4.2054,4.2055,0,0,4.1689,4.1747,4.1748,4.1767,4.1808,4.1823,4.1837,4.1865,4.1876,4.1901,4.1914,4.1941,4.1955,4.1971,4.1992,4.1998,4.1988,4.2012,4.2013,4.2007,4.1994,4.1984,4.1982,4.2001,4.2001,4.2001,4.1992,0,4.1676,4.1706,4.1738,4.1757,4.1775,4.1808,4.1821,4.1847,4.1869,4.1887,4.191,4.193,4.1946,4.1956,4.1963,4.1988,4.1986,4.1989,4.2013,4.2013,4.2005,4.1981,4.197,4.196,4.1991,4.1991,4.1991,0,4.1665,4.1691,4.1712,4.1753,4.1761,4.1773,4.1801,4.1818,4.1848,4.1863,4.1882,4.1905,4.1922,4.1935,4.1957,4.1958,4.197,4.1983,4.1984,4.1987,4.2002,4.1984,4.1958,4.1957,4.199,4.199,4.199,0,4.163,4.167,4.1689,4.1703,4.175,4.1758,4.1777,4.1808,4.1823,4.1847,4.1857,4.1882,4.1896,4.1914,4.1943,4.195,4.1963,4.1978,4.1976,4.1975,4.1977,4.1976,4.1952,4.1983,4.1983,4.1983,4.1983,0,4.1613,4.1625,4.1675,4.1686,4.17,4.1735,4.1748,4.177,4.1797,4.1812,4.1841,4.1854,4.1892,4.1909,4.1931,4.1947,4.1952,4.1965,4.1971,4.1963,4.1961,4.1971,4.1973,4.1983,4.1983,4.1983,4.1983,0,4.1577,4.1611,4.1633,4.1677,4.1688,4.1696,4.1733,4.1745,4.1769,4.1788,4.1794,4.1831,4.1853,4.1884,4.1915,4.193,4.1943,4.1951,4.1933,4.1937,4.1933,4.1933,4.1915,4.1914,4.1944,4.1944,4.1944,0,4.1564,4.1575,4.162,4.1634,4.1653,4.1674,4.169,4.1725,4.174,4.1775,4.1782,4.1807,4.1829,4.1863,4.1892,4.1916,4.1926,4.1918,4.1929,4.1921,4.1926,4.1926,4.1927,4.1915,4.1914,4.1914,4.1913,0,4.1538,4.1555,4.1578,4.1608,4.1627,4.1651,4.1676,4.1685,4.1725,4.1741,4.1765,4.1782,4.1815,4.1839,4.1867,4.1886,4.1906,4.191,4.1911,4.1903,4.1892,4.1898,4.1926,4.191,4.191,4.1911,4.1911,4.1911,4.1514,4.1525,4.156,4.1585,4.1608,4.1631,4.1645,4.1671,4.1693,4.1724,4.1742,4.1766,4.1795,4.1835,4.1853,4.1871,4.1879,4.188,4.188,4.188,4.1878,4.1889,4.1876,4.1876,4.1876,4.1876,4.1876,0,4.149,4.1514,4.1537,4.1573,4.1593,4.1612,4.1641,4.1656,4.1677,4.1703,4.1725,4.1753,4.1777,4.1808,4.1834,4.1842,4.1852,4.1848,4.1848,4.1852,4.1869,4.1866,4.1839,4.1839,4.1839,4.1839,4.1839,4.1839,4.148,4.1501,4.1521,4.1553,4.1576,4.1601,4.1616,4.1638,4.1659,4.169,4.1711,4.1732,4.176,4.1788,4.1811,4.1819,4.1827,4.182,4.1831,4.1847,4.185,4.1853,4.1851,4.1822,4.1822,4.1813,4.1813,4.1813]}]]